Tracking 17138 objects as of 7-July-2015
HD Live streaming from Space Station

SINAH 1

Track SINAH 1 now!
10-day predictions
SINAH 1 is classified as:


NORAD ID: 28893
Int'l Code: 2005-043D
Perigee: 686.6 km
Apogee: 706.5 km
Inclination: 97.8 °
Period: 98.6 minutes
Semi major axis: 7067 km
RCS: 0.8773 m2 (medium)
Launch date: October 27, 2005
Source: Iran (IRAN)

Sinah 1 is an Iranian microsatellite (170 kg). Iranian press reports that it is intended for "telecommunications and research".
Your satellite tracking list
Your tracking list is empty





NASA's NSSDC Master Catalog

Two Line Element Set (TLE):
1 28893U 05043D   15187.14610720  .00000360  00000-0  81906-4 0  9992
2 28893 097.8211 011.2705 0014116 236.7475 239.8426 14.61163229516464

Source of the keplerian elements: AFSPC

N2YO: 250